Total_Precipitation_Accumulation
0.02 0.04 0.06 0.08 0.08 0.09 0.08 0.06 0.05 0.03 0.00 0.00 0.00 0.00 0.02 0.04 0.04 0.04 0.02 0.00 0.00 0.00 0.00 0.00 0.00 0.00 0.00 0.00 0.00 0.00 0.00 0.00 0.00 0.00 0.00 0.00 0.00 0.00 0.00 0.00 0.00 0.00 0.00 0.00 0.00
0.01 0.02 0.02 0.07 0.08 0.07 0.06 0.05 0.04 0.04 0.02 0.00 0.00 0.00 0.03 0.07 0.03 0.01 0.00 0.00 0.00 0.00 0.00 0.00 0.00 0.00 0.00 0.00 0.00 0.00 0.00 0.00 0.00 0.00 0.00 0.00 0.00 0.00 0.00 0.00 0.00 0.00 0.00 0.00 0.00
0.01 0.01 0.01 0.06 0.10 0.07 0.06 0.05 0.04 0.04 0.04 0.00 0.00 0.00 0.02 0.11 0.09 0.01 0.00 0.00 0.03 0.04 0.00 0.00 0.00 0.00 0.00 0.00 0.00 0.00 0.00 0.00 0.00 0.00 0.00 0.00 0.00 0.00 0.00 0.00 0.00 0.00 0.00 0.00 0.00
0.01 0.02 0.03 0.04 0.09 0.09 0.08 0.08 0.08 0.08 0.07 0.02 0.00 0.00 0.01 0.16 0.08 0.03 0.00 0.01 0.06 0.12 0.00 0.00 0.00 0.00 0.00 0.00 0.00 0.00 0.00 0.00 0.00 0.00 0.00 0.00 0.00 0.00 0.00 0.00 0.00 0.00 0.00 0.00 0.00
0.01 0.03 0.03 0.03 0.05 0.10 0.09 0.07 0.09 0.15 0.13 0.06 0.00 0.00 0.02 0.10 0.05 0.01 0.01 0.03 0.12 0.22 0.02 0.00 0.00 0.00 0.00 0.00 0.00 0.00 0.00 0.00 0.00 0.00 0.00 0.00 0.00 0.00 0.00 0.00 0.00 0.00 0.00 0.00 0.00
0.00 0.01 0.03 0.03 0.03 0.08 0.09 0.07 0.09 0.12 0.12 0.11 0.03 0.01 0.01 0.05 0.01 0.00 0.00 0.01 0.05 0.22 0.10 0.01 0.00 0.00 0.00 0.00 0.00 0.00 0.00 0.00 0.00 0.00 0.00 0.00 0.00 0.00 0.00 0.00 0.00 0.00 0.00 0.00 0.00
0.01 0.01 0.03 0.03 0.04 0.06 0.08 0.07 0.12 0.16 0.15 0.14 0.05 0.01 0.00 0.00 0.00 0.00 0.00 0.00 0.01 0.17 0.19 0.04 0.01 0.00 0.00 0.00 0.00 0.00 0.00 0.00 0.00 0.00 0.00 0.00 0.00 0.00 0.00 0.00 0.00 0.00 0.00 0.00 0.00
0.03 0.03 0.01 0.04 0.04 0.06 0.09 0.08 0.10 0.16 0.19 0.18 0.10 0.02 0.00 0.00 0.00 0.00 0.00 0.00 0.00 0.06 0.26 0.18 0.03 0.01 0.00 0.00 0.00 0.00 0.00 0.00 0.00 0.00 0.00 0.00 0.00 0.00 0.00 0.00 0.00 0.00 0.00 0.00 0.00
0.05 0.04 0.01 0.04 0.07 0.12 0.16 0.22 0.22 0.18 0.28 0.29 0.13 0.02 0.00 0.00 0.00 0.00 0.00 0.00 0.03 0.05 0.21 0.10 0.09 0.01 0.00 0.00 0.00 0.00 0.00 0.00 0.00 0.00 0.00 0.00 0.00 0.00 0.00 0.00 0.00 0.00 0.00 0.00 0.00
0.04 0.05 0.04 0.06 0.11 0.17 0.31 0.45 0.47 0.40 0.44 0.49 0.13 0.03 0.00 0.00 0.00 0.00 0.00 0.00 0.03 0.06 0.12 0.07 0.13 0.05 0.01 0.00 0.00 0.00 0.00 0.00 0.00 0.00 0.00 0.00 0.00 0.00 0.00 0.00 0.00 0.00 0.00 0.00 0.00
0.06 0.06 0.07 0.07 0.13 0.27 0.49 0.90 0.83 0.75 0.67 0.41 0.08 0.00 0.00 0.00 0.00 0.00 0.00 0.00 0.01 0.04 0.02 0.03 0.06 0.03 0.00 0.00 0.00 0.00 0.00 0.00 0.00 0.00 0.00 0.00 0.00 0.00 0.00 0.00 0.00 0.00 0.00 0.00 0.00
0.08 0.09 0.11 0.08 0.07 0.28 0.64 0.87 0.57 0.46 0.50 0.20 0.05 0.00 0.00 0.00 0.00 0.00 0.00 0.00 0.00 0.01 0.00 0.00 0.01 0.00 0.00 0.00 0.00 0.00 0.00 0.00 0.00 0.00 0.00 0.00 0.00 0.00 0.00 0.00 0.00 0.00 0.00 0.00 0.00
0.09 0.07 0.09 0.08 0.03 0.24 0.43 0.49 0.56 0.43 0.48 0.28 0.08 0.01 0.00 0.00 0.00 0.00 0.00 0.00 0.00 0.00 0.00 0.00 0.00 0.00 0.00 0.00 0.00 0.00 0.00 0.00 0.00 0.00 0.00 0.00 0.00 0.00 0.00 0.00 0.00 0.00 0.00 0.00 0.00
0.08 0.04 0.07 0.09 0.08 0.16 0.42 0.34 0.71 0.64 0.52 0.31 0.13 0.01 0.00 0.00 0.00 0.00 0.00 0.00 0.00 0.00 0.00 0.00 0.00 0.00 0.00 0.00 0.00 0.00 0.00 0.00 0.00 0.00 0.00 0.00 0.00 0.00 0.00 0.00 0.00 0.00 0.00 0.00 0.00
0.04 0.08 0.10 0.23 0.23 0.12 0.44 0.86 0.98 0.89 0.67 0.18 0.07 0.00 0.00 0.00 0.00 0.00 0.00 0.00 0.00 0.00 0.00 0.00 0.00 0.00 0.00 0.00 0.00 0.00 0.00 0.00 0.00 0.00 0.00 0.00 0.01 0.00 0.00 0.00 0.00 0.00 0.00 0.00 0.00
0.05 0.16 0.32 0.37 0.28 0.13 0.33 1.15 1.44 0.93 0.49 0.20 0.07 0.02 0.02 0.01 0.00 0.00 0.00 0.01 0.00 0.00 0.00 0.00 0.00 0.00 0.00 0.00 0.00 0.00 0.00 0.00 0.00 0.01 0.03 0.00 0.00 0.00 0.00 0.00 0.00 0.00 0.00 0.00 0.00
0.32 0.46 0.34 0.25 0.11 0.12 0.59 1.22 1.39 0.62 0.12 0.04 0.02 0.03 0.01 0.01 0.02 0.00 0.01 0.02 0.00 0.01 0.01 0.00 0.00 0.00 0.00 0.00 0.00 0.00 0.01 0.01 0.02 0.05 0.01 0.00 0.00 0.00 0.00 0.00 0.00 0.00 0.00 0.00 0.00
0.54 0.25 0.12 0.07 0.06 0.32 0.76 0.74 0.84 0.28 0.03 0.01 0.01 0.02 0.01 0.01 0.02 0.01 0.01 0.02 0.01 0.00 0.00 0.00 0.00 0.00 0.00 0.00 0.00 0.00 0.01 0.01 0.00 0.00 0.00 0.00 0.00 0.00 0.00 0.00 0.00 0.00 0.00 0.00 0.00
0.33 0.11 0.12 0.13 0.12 0.37 0.67 0.47 0.61 0.19 0.00 0.01 0.03 0.02 0.03 0.01 0.01 0.01 0.01 0.00 0.00 0.00 0.00 0.00 0.00 0.00 0.00 0.00 0.00 0.01 0.01 0.00 0.05 0.02 0.07 0.01 0.00 0.00 0.00 0.00 0.00 0.00 0.00 0.00 0.00
0.26 0.14 0.25 0.19 0.10 0.35 0.46 0.35 0.31 0.03 0.00 0.00 0.02 0.01 0.01 0.00 0.01 0.01 0.01 0.00 0.00 0.00 0.00 0.00 0.00 0.00 0.00 0.00 0.00 0.00 0.00 0.03 0.08 0.04 0.03 0.00 0.00 0.00 0.00 0.00 0.00 0.00 0.00 0.00 0.00
0.22 0.29 0.32 0.12 0.14 0.31 0.35 0.51 0.20 0.00 0.00 0.00 0.00 0.00 0.00 0.00 0.00 0.00 0.00 0.00 0.00 0.00 0.00 0.00 0.00 0.00 0.00 0.00 0.00 0.00 0.02 0.03 0.05 0.04 0.05 0.02 0.00 0.00 0.00 0.00 0.00 0.00 0.00 0.00 0.01
0.21 0.40 0.13 0.09 0.21 0.22 0.35 0.34 0.11 0.01 0.01 0.00 0.00 0.00 0.00 0.00 0.00 0.00 0.00 0.00 0.00 0.00 0.00 0.00 0.01 0.01 0.00 0.00 0.00 0.00 0.00 0.02 0.16 0.05 0.11 0.07 0.03 0.00 0.00 0.00 0.00 0.00 0.00 0.00 0.01
0.26 0.25 0.16 0.15 0.11 0.12 0.22 0.04 0.01 0.03 0.01 0.00 0.00 0.00 0.00 0.00 0.00 0.00 0.00 0.00 0.00 0.00 0.00 0.00 0.01 0.00 0.00 0.01 0.02 0.01 0.00 0.07 0.15 0.30 0.21 0.11 0.03 0.00 0.00 0.00 0.00 0.00 0.00 0.00 0.00
0.19 0.25 0.14 0.10 0.03 0.05 0.12 0.06 0.02 0.03 0.00 0.00 0.00 0.00 0.00 0.00 0.00 0.00 0.00 0.00 0.00 0.00 0.00 0.00 0.00 0.00 0.00 0.00 0.06 0.11 0.02 0.06 0.31 0.44 0.07 0.04 0.00 0.00 0.00 0.01 0.03 0.02 0.01 0.01 0.01
0.09 0.04 0.02 0.04 0.01 0.03 0.03 0.04 0.01 0.00 0.00 0.00 0.00 0.00 0.00 0.00 0.00 0.00 0.00 0.00 0.00 0.00 0.00 0.00 0.02 0.00 0.00 0.00 0.02 0.06 0.05 0.07 0.30 0.15 0.21 0.07 0.00 0.00 0.00 0.02 0.03 0.02 0.02 0.03 0.03
0.05 0.02 0.01 0.00 0.00 0.00 0.00 0.01 0.01 0.00 0.00 0.00 0.00 0.00 0.00 0.00 0.00 0.00 0.00 0.00 0.00 0.00 0.00 0.01 0.02 0.01 0.01 0.00 0.01 0.06 0.02 0.06 0.05 0.02 0.02 0.00 0.00 0.00 0.01 0.00 0.01 0.03 0.01 0.00 0.00
0.05 0.01 0.01 0.01 0.00 0.00 0.00 0.00 0.00 0.00 0.00 0.00 0.00 0.00 0.01 0.00 0.00 0.00 0.00 0.00 0.00 0.00 0.00 0.01 0.02 0.05 0.03 0.00 0.04 0.08 0.05 0.03 0.02 0.00 0.01 0.02 0.01 0.05 0.17 0.35 0.31 0.09 0.03 0.02 0.01